NOAA 16 DEB, 41402

Orbit data source: Space-Track

NOAA 16 DEB, 41402 is space debris in SSO originally from a launch on Thu, 21 Sep 2000 UTC launched from the Air Force Western Test Range (AFWTR). Debris objects in space refer to the collection of defunct objects orbiting the Earth. Examples of debris include non-operational satellites, rocket bodies, and fragments generated from explosions, collisions, or faulty payload assembly.

Loading next visibility...
Identifier
41402, 2000-055KF
Orbit
SSO
Country
Flag of USUS
Related business
Manufacturer
Unknown
Mission
Spacecraft
Bus & Motor
Unknown
Mass
Unknown
Launch date (UTC)
2000-09-21 (25 years ago)
Launch vehicle
Unknown
Launch site
Air Force Western Test Range (AFWTR)
Object type
Payload
Rocket body
Debris
Shape & HBR
Unknown shape, 0.1 m
Radar Cross Section
Small (<0.1 m²)

Expand to show TLE details & history
Last TLE update: 18 hours ago

TLE from 18 hours ago
0 NOAA 16 DEB
1 41402U 00055KF  25342.02948070  .00004257  00000-0  21002-2 0  9992
2 41402  98.6915  10.0570 0030031  79.3615 281.0940 14.17734227505273
Epoch: 2025-12-08T00:42Z
TLE epoch observation values (Epoch: 2025-12-08T00:42:27.132Z)
Latitude
-0.00003°
Longitude
-77.59042°
Altitude
831.833 km
Speed
7.439 km/s
True Right ascension
00h 40m 13s
True Declination
0° 00' 00"
Sunlit
Object was in daylight at epoch
Visualization orbit readout
Latitude
Unknown
Longitude
Unknown
Altitude
Unknown
Speed
Unknown
Apparent Right ascension
Unknown
Apparent Declination
Unknown
Sunlit
N/A
Visualization observer readout
Local Sidereal Time
17:01:04
Azimuth
Unknown
Elevation
Unknown
Doppler factor
Unknown
Orbital elements
Apogee altitude
851.834 km
Perigee altitude
808.539 km
Semi-major axis
7,208.323 km
Eccentricity
0.003
Inclination
98.6915°
RAAN
10.057°
Arg. of periapsis
79.3615°
True anomaly
280.75606°
Mean anomaly
281.094°
Eccentric anomaly
280.92505°
Mean motion
3.54643 °/min
Orbital period
101.51 mins
BSTAR
0.0021002
Loading maneuver chart data...
Computing Atmospheric mass density...
Loading historical data...
Loading historical data...
Loading historical data...
Loading historical data...
Loading historical data...
Loading historical data...
Loading historical data...

Documentation

Showing up to 5 results
|